TimeCST,TemperatureF,Dew PointF,Humidity,Sea Level PressureIn,VisibilityMPH,Wind Direction,Wind SpeedMPH,Gust SpeedMPH,PrecipitationIn,Events,Conditions,WindDirDegrees,DateUTC
12:53 AM,66.0,62.1,87,29.90,10.0,SSE,8.1,-,N/A,,Clear,150,2012-12-19 06:53:00
1:53 AM,66.0,63.0,90,29.88,10.0,SSE,8.1,-,N/A,,Clear,150,2012-12-19 07:53:00
2:53 AM,66.9,64.0,90,29.87,10.0,SSE,8.1,-,N/A,,Clear,150,2012-12-19 08:53:00
3:53 AM,66.9,64.0,90,29.86,10.0,SSE,8.1,-,N/A,,Scattered Clouds,150,2012-12-19 09:53:00
4:53 AM,66.9,64.0,90,29.85,10.0,SSE,8.1,-,N/A,,Scattered Clouds,160,2012-12-19 10:53:00
5:15 AM,68.0,64.4,88,29.84,10.0,South,8.1,-,N/A,,Mostly Cloudy,170,2012-12-19 11:15:00
5:53 AM,68.0,64.9,90,29.85,10.0,SSE,6.9,-,N/A,,Mostly Cloudy,150,2012-12-19 11:53:00
6:53 AM,69.1,66.0,90,29.87,10.0,South,3.5,-,N/A,,Overcast,170,2012-12-19 12:53:00
7:53 AM,69.1,66.9,93,29.88,5.0,SSE,5.8,-,N/A,,Mostly Cloudy,160,2012-12-19 13:53:00
8:43 AM,71.6,68.0,88,29.86,9.0,SSE,9.2,-,N/A,,Mostly Cloudy,160,2012-12-19 14:43:00
8:53 AM,72.0,68.0,87,29.88,8.0,SSE,10.4,-,N/A,,Mostly Cloudy,150,2012-12-19 14:53:00
9:41 AM,75.2,69.8,83,29.87,10.0,South,15.0,23.0,N/A,,Mostly Cloudy,170,2012-12-19 15:41:00
9:53 AM,75.0,69.1,82,29.88,10.0,South,11.5,20.7,N/A,,Mostly Cloudy,170,2012-12-19 15:53:00
10:18 AM,75.2,69.8,83,29.86,10.0,South,13.8,26.5,N/A,,Mostly Cloudy,170,2012-12-19 16:18:00
10:53 AM,78.1,69.1,74,29.87,10.0,South,12.7,23.0,N/A,,Mostly Cloudy,180,2012-12-19 16:53:00
11:24 AM,78.8,68.0,69,29.82,10.0,South,24.2,36.8,N/A,,Mostly Cloudy,180,2012-12-19 17:24:00
11:53 AM,79.0,66.0,64,29.82,10.0,South,23.0,33.4,N/A,,Mostly Cloudy,180,2012-12-19 17:53:00
12:53 PM,79.0,64.9,62,29.82,10.0,South,20.7,31.1,N/A,,Mostly Cloudy,190,2012-12-19 18:53:00
1:53 PM,81.0,66.0,60,29.78,10.0,South,17.3,28.8,N/A,,Mostly Cloudy,170,2012-12-19 19:53:00
2:53 PM,79.0,66.0,64,29.78,10.0,South,18.4,26.5,N/A,,Mostly Cloudy,180,2012-12-19 20:53:00
3:53 PM,77.0,66.9,71,29.76,10.0,South,16.1,25.3,N/A,,Mostly Cloudy,170,2012-12-19 21:53:00
4:48 PM,77.0,68.0,74,29.75,10.0,South,13.8,21.9,N/A,,Mostly Cloudy,180,2012-12-19 22:48:00
4:53 PM,75.9,68.0,76,29.77,10.0,South,13.8,-,N/A,,Mostly Cloudy,180,2012-12-19 22:53:00
5:14 PM,75.2,68.0,78,29.74,10.0,South,16.1,21.9,0.00,,Mostly Cloudy,170,2012-12-19 23:14:00
5:48 PM,75.2,69.8,83,29.73,10.0,South,13.8,24.2,0.00,,Mostly Cloudy,170,2012-12-19 23:48:00
5:53 PM,75.0,69.1,82,29.74,10.0,South,11.5,-,0.00,,Mostly Cloudy,180,2012-12-19 23:53:00
6:22 PM,73.4,69.8,88,29.73,10.0,South,13.8,21.9,N/A,,Overcast,180,2012-12-20 00:22:00
6:53 PM,73.9,69.1,85,29.77,10.0,South,12.7,-,N/A,,Overcast,180,2012-12-20 00:53:00
7:48 PM,73.4,69.8,88,29.75,10.0,South,11.5,21.9,N/A,,Mostly Cloudy,180,2012-12-20 01:48:00
7:53 PM,73.0,69.1,87,29.76,10.0,South,12.7,21.9,N/A,,Mostly Cloudy,180,2012-12-20 01:53:00
8:33 PM,73.4,69.8,88,29.75,10.0,South,13.8,21.9,N/A,,Mostly Cloudy,170,2012-12-20 02:33:00
8:53 PM,73.9,70.0,87,29.77,10.0,South,10.4,23.0,N/A,,Mostly Cloudy,190,2012-12-20 02:53:00
9:53 PM,73.0,70.0,90,29.77,10.0,South,11.5,19.6,N/A,,Mostly Cloudy,190,2012-12-20 03:53:00
10:53 PM,73.9,70.0,87,29.80,10.0,SSW,11.5,-,N/A,,Overcast,200,2012-12-20 04:53:00
11:53 PM,73.9,69.1,85,29.78,10.0,SSW,13.8,-,N/A,,Overcast,200,2012-12-20 05:53:00